GW4082 Weather Reports


Display with metric or nautical units.
time (UTC)temp
F
wind
direction
speed
MPH
gust
MPH
rain 1hr
in
rain 24hr
in
rain mn
in
humidity
%
barometer
mb
20260504045343 43 338 0.0 0.0 0.00 0.00 0.00 76 1013.2
20260504044841 43 336 0.0 0.0 0.00 0.00 0.00 76 1013.3
20260504044338 43 337 0.0 0.0 0.00 0.00 0.00 75 1013.1
20260504043836 43 333 0.0 0.0 0.00 0.00 0.00 75 1013.1
20260504043332 43 336 0.0 0.0 0.00 0.00 0.00 76 1012.9
20260504042829 44 336 0.0 0.0 0.00 0.00 0.00 76 1013.1
20260504042326 44 337 0.0 0.0 0.00 0.00 0.00 75 1012.9
20260504041822 44 334 0.0 0.0 0.00 0.00 0.00 74 1012.9
20260504041318 44 334 0.0 0.0 0.00 0.00 0.00 74 1013.0
20260504040815 44 323 0.0 0.0 0.00 0.00 0.00 74 1012.9
20260504040312 44 335 0.0 0.0 0.00 0.00 0.00 72 1012.9
20260504035808 45 334 0.0 0.0 0.00 0.00 0.00 72 1012.8
20260504035305 45 328 0.0 0.0 0.00 0.00 0.00 72 1012.8
20260504034802 46 333 0.0 0.0 0.00 0.00 0.00 71 1012.8
20260504034300 46 332 0.0 0.0 0.00 0.00 0.00 69 1012.8
20260504033757 47 330 0.0 0.0 0.00 0.00 0.00 68 1012.6
20260504033255 47 326 0.0 2.0 0.00 0.00 0.00 67 1012.7
20260504032751 47 314 2.0 2.0 0.00 0.00 0.00 66 1012.5
20260504032248 47 325 0.0 0.0 0.00 0.00 0.00 65 1012.8
20260504031745 47 327 0.0 0.0 0.00 0.00 0.00 65 1012.6
20260504031243 48 325 0.0 0.0 0.00 0.00 0.00 63 1012.6
20260504030738 48 317 0.0 0.0 0.00 0.00 0.00 62 1012.7
20260504030236 49 325 0.0 0.0 0.00 0.00 0.00 60 1012.6
20260504025732 49 326 0.0 0.0 0.00 0.00 0.00 60 1012.6
20260504025229 49 315 0.0 0.0 0.00 0.00 0.00 60 1012.7
20260504024726 49 318 0.0 2.0 0.00 0.00 0.00 61 1012.5
20260504024222 49 325 0.0 2.0 0.00 0.00 0.00 60 1012.7
20260504023719 49 321 0.0 0.0 0.00 0.00 0.00 61 1012.5
20260504023215 50 322 0.0 2.0 0.00 0.00 0.00 60 1012.6
20260504022712 50 314 0.0 0.0 0.00 0.00 0.00 59 1012.5
20260504022208 51 327 0.0 0.0 0.00 0.00 0.00 58 1012.6
20260504021706 51 321 0.0 0.0 0.00 0.00 0.00 57 1012.4
20260504021202 51 323 1.0 2.0 0.00 0.00 0.00 56 1012.4
20260504020659 51 326 0.0 2.0 0.00 0.00 0.00 54 1012.5
20260504020155 52 325 0.0 2.0 0.00 0.00 0.00 53 1012.4
20260504015652 52 291 2.0 5.0 0.00 0.00 0.00 52 1012.4
20260504015148 53 317 0.0 0.0 0.00 0.00 0.00 52 1012.3
20260504014644 53 309 2.0 2.0 0.00 0.00 0.00 50 1012.3
20260504014142 54 326 2.0 2.0 0.00 0.00 0.00 49 1012.3
20260504013639 54 314 0.0 2.0 0.00 0.00 0.00 48 1012.1
20260504013136 54 312 0.0 2.0 0.00 0.00 0.00 48 1012.1
20260504012633 54 312 1.0 5.0 0.00 0.00 0.00 48 1012.1
20260504012131 54 289 3.0 5.0 0.00 0.00 0.00 49 1012.3
20260504011627 54 295 4.0 5.0 0.00 0.00 0.00 49 1012.2
20260504011124 54 249 3.0 5.0 0.00 0.00 0.00 48 1012.2
20260504010620 55 324 3.0 7.0 0.00 0.00 0.00 48 1011.9
20260504010116 55 292 4.0 7.0 0.00 0.00 0.00 48 1011.9
20260504005613 55 284 3.0 7.0 0.00 0.00 0.00 48 1011.9
20260504005110 55 289 4.0 5.0 0.00 0.00 0.00 48 1012.0
20260504004608 55 289 2.0 5.0 0.00 0.00 0.00 47 1012.0
20260504004105 56 301 2.0 7.0 0.00 0.00 0.00 47 1011.9
20260504003555 56 266 6.0 7.0 0.00 0.00 0.00 45 1011.8
20260504003053 57 288 3.0 7.0 0.00 0.00 0.00 44 1011.7
20260504002549 57 306 3.0 7.0 0.00 0.00 0.00 45 1011.7
20260504002047 57 259 7.0 10.0 0.00 0.00 0.00 44 1011.6
20260504001545 57 324 4.0 7.0 0.00 0.00 0.00 44 1011.5
20260504001040 57 286 4.0 15.0 0.00 0.00 0.00 44 1011.7
20260504000538 58 300 7.0 10.0 0.00 0.00 0.00 43 1011.5
20260504000035 58 301 7.0 10.0 0.00 0.00 0.00 43 1011.3
20260503235533 58 298 4.0 12.0 0.00 0.00 0.00 43 1011.4
20260503235030 58 317 5.0 10.0 0.00 0.00 0.00 42 1011.5
20260503234527 59 276 6.0 10.0 0.00 0.00 0.00 42 1011.5
20260503234026 59 250 2.0 12.0 0.00 0.00 0.00 42 1011.3
20260503233521 59 290 5.0 10.0 0.00 0.00 0.00 41 1011.4
20260503233018 59 272 4.0 10.0 0.00 0.00 0.00 42 1011.4
20260503232515 60 230 6.0 10.0 0.00 0.00 0.00 40 1011.5
20260503232012 60 329 6.0 10.0 0.00 0.00 0.00 40 1011.4
20260503231510 60 261 8.0 12.0 0.00 0.00 0.00 40 1011.3
20260503231006 60 262 6.0 10.0 0.00 0.00 0.00 40 1011.2
20260503230503 60 307 5.0 10.0 0.00 0.00 0.00 40 1011.4
20260503230000 60 287 11.0 17.0 0.00 0.00 0.00 39 1011.5
20260503225457 61 298 8.0 12.0 0.00 0.00 0.00 38 1011.3
20260503224952 61 288 10.0 15.0 0.00 0.00 0.00 38 1011.2
20260503224450 62 282 7.0 12.0 0.00 0.00 0.00 38 1011.4
20260503223947 62 274 9.0 12.0 0.00 0.00 0.00 37 1011.4
20260503223445 62 325 9.0 15.0 0.00 0.00 0.00 36 1011.3
20260503222941 62 262 8.0 10.0 0.00 0.00 0.00 37 1011.2
20260503222439 61 288 9.0 12.0 0.00 0.00 0.00 38 1011.4
20260503221937 61 272 14.0 19.0 0.00 0.00 0.00 38 1011.3
20260503221435 62 284 8.0 10.0 0.00 0.00 0.00 37 1011.3
20260503220932 61 294 5.0 12.0 0.00 0.00 0.00 37 1011.2
20260503220428 63 300 9.0 19.0 0.00 0.00 0.00 36 1011.2
20260503215925 63 279 8.0 17.0 0.00 0.00 0.00 36 1011.5
20260503215422 62 297 13.0 19.0 0.00 0.00 0.00 36 1011.5
20260503214920 61 296 13.0 24.0 0.00 0.00 0.00 37 1011.4
20260503214417 62 252 13.0 27.0 0.00 0.00 0.00 35 1011.3
20260503213914 62 276 11.0 24.0 0.00 0.00 0.00 36 1011.2
20260503213412 62 294 8.0 15.0 0.00 0.00 0.00 36 1011.2
20260503212908 62 257 6.0 12.0 0.00 0.00 0.00 37 1011.4
20260503212406 63 258 4.0 22.0 0.00 0.00 0.00 36 1011.3
20260503211903 63 289 10.0 17.0 0.00 0.00 0.00 35 1011.2
20260503211400 63 305 13.0 22.0 0.00 0.00 0.00 35 1011.1
20260503210855 62 246 12.0 19.0 0.00 0.00 0.00 36 1011.0
20260503210352 61 265 6.0 17.0 0.00 0.00 0.00 36 1011.2
20260503205847 62 336 9.0 22.0 0.00 0.00 0.00 36 1011.2
20260503205344 63 293 7.0 19.0 0.00 0.00 0.00 36 1011.3
20260503204841 62 327 9.0 19.0 0.00 0.00 0.00 37 1011.3
20260503204338 63 294 14.0 29.0 0.00 0.00 0.00 35 1011.3
20260503203835 64 266 10.0 15.0 0.00 0.00 0.00 36 1011.4
20260503203333 61 268 11.0 17.0 0.00 0.00 0.00 37 1011.3
20260503202829 62 320 10.0 22.0 0.00 0.00 0.00 36 1011.4
20260503202328 62 294 6.0 17.0 0.00 0.00 0.00 36 1011.3
20260503201826 62 312 22.0 29.0 0.00 0.00 0.00 34 1011.3
20260503201322 64 321 10.0 19.0 0.00 0.00 0.00 35 1011.3
20260503200820 63 257 9.0 24.0 0.00 0.00 0.00 36 1011.2
20260503200315 63 286 3.0 15.0 0.00 0.00 0.00 36 1011.3
20260503195813 62 316 11.0 17.0 0.00 0.00 0.00 36 1011.5
20260503195309 63 340 4.0 15.0 0.00 0.00 0.00 35 1011.5
20260503194807 64 305 9.0 12.0 0.00 0.00 0.00 37 1011.5
20260503194303 62 324 4.0 10.0 0.00 0.00 0.00 35 1011.7
20260503193759 62 299 9.0 17.0 0.00 0.00 0.00 36 1011.8
20260503193255 62 334 9.0 22.0 0.00 0.00 0.00 36 1011.8
20260503192751 63 226 11.0 17.0 0.00 0.00 0.00 35 1011.9
20260503192246 62 261 9.0 15.0 0.00 0.00 0.00 36 1012.2
20260503191743 63 279 7.0 24.0 0.00 0.00 0.00 36 1011.9
20260503191240 62 308 8.0 15.0 0.00 0.00 0.00 35 1012.0
20260503190731 62 297 13.0 24.0 0.00 0.00 0.00 36 1012.1
20260503190228 62 256 13.0 19.0 0.00 0.00 0.00 36 1012.3
20260503185725 61 293 13.0 22.0 0.00 0.00 0.00 37 1012.1
20260503185221 63 268 3.0 10.0 0.00 0.00 0.00 37 1012.2
20260503184716 62 303 3.0 12.0 0.00 0.00 0.00 36 1012.3
20260503184212 61 299 8.0 12.0 0.00 0.00 0.00 35 1012.3
20260503183709 62 264 6.0 12.0 0.00 0.00 0.00 36 1012.2
20260503183206 61 236 8.0 12.0 0.00 0.00 0.00 37 1012.4
20260503182704 60 224 11.0 17.0 0.00 0.00 0.00 37 1012.4
20260503182203 60 292 14.0 17.0 0.00 0.00 0.00 36 1012.5
20260503181658 59 299 12.0 19.0 0.00 0.00 0.00 37 1012.5
20260503181155 59 281 5.0 17.0 0.00 0.00 0.00 37 1012.6
20260503180652 59 335 8.0 10.0 0.00 0.00 0.00 37 1012.5
20260503180151 60 329 11.0 15.0 0.00 0.00 0.00 37 1012.7
20260503175647 60 249 7.0 7.0 0.00 0.00 0.00 37 1012.7
20260503175144 59 274 16.0 22.0 0.00 0.00 0.00 35 1012.8
20260503174640 59 318 4.0 7.0 0.00 0.00 0.00 38 1012.9
20260503174138 58 338 8.0 15.0 0.00 0.00 0.00 38 1012.9
20260503173633 58 263 6.0 15.0 0.00 0.00 0.00 36 1013.1
20260503173129 58 302 10.0 19.0 0.00 0.00 0.00 38 1013.1
20260503172620 58 340 3.0 12.0 0.00 0.00 0.00 38 1013.2
20260503172118 58 324 2.0 7.0 0.00 0.00 0.00 40 1013.4
20260503171614 59 296 4.0 7.0 0.00 0.00 0.00 39 1013.3
20260503171112 59 356 4.0 5.0 0.00 0.00 0.00 38 1013.3
20260503170609 59 0 6.0 7.0 0.00 0.00 0.00 38 1013.5
20260503170105 57 334 9.0 19.0 0.00 0.00 0.00 40 1013.5
20260503151000 53 323 5.0 12.0 0.00 0.00 0.00 45 1014.7
20260503150457 52 307 4.0 15.0 0.00 0.00 0.00 45 1014.8
20260503131344 48 343 4.0 10.0 0.00 0.00 0.00 47 1015.1
20260503130841 48 302 2.0 2.0 0.00 0.00 0.00 51 1015.2
20260503130339 47 6 1.0 5.0 0.00 0.00 0.00 52 1015.1
20260503110738 40 303 2.0 5.0 0.00 0.00 0.00 71 1014.9
20260503110235 40 297 2.0 2.0 0.00 0.00 0.00 71 1014.7
20260503100201 39 334 0.0 2.0 0.00 0.00 0.00 72 1013.9
20260503090120 39 326 0.0 0.0 0.00 0.00 0.00 71 1013.8
20260503081551 41 331 0.0 2.0 0.00 0.00 0.00 72 1013.7
20260503081048 41 328 0.0 2.0 0.00 0.00 0.00 72 1013.6
20260503080544 41 331 0.0 2.0 0.00 0.00 0.00 72 1013.5
20260503072517 42 341 0.0 0.0 0.00 0.00 0.00 69 1013.2
20260503072014 42 336 0.0 2.0 0.00 0.00 0.00 68 1013.1
20260503071511 42 330 0.0 2.0 0.00 0.00 0.00 69 1013.1
20260503071008 42 333 0.0 0.0 0.00 0.00 0.00 69 1013.1
20260503070504 43 333 0.0 0.0 0.00 0.00 0.00 69 1013.0
20260503054922 45 351 4.0 7.0 0.00 0.00 0.00 64 1013.1
20260503054419 45 0 0.0 7.0 0.00 0.00 0.00 63 1013.2
20260503053917 45 3 3.0 5.0 0.00 0.00 0.00 62 1013.2
20260503053414 45 2 2.0 7.0 0.00 0.00 0.00 63 1013.2
20260503052910 45 349 0.0 2.0 0.00 0.00 0.00 64 1013.2
20260503052408 45 339 0.0 0.0 0.00 0.00 0.00 64 1013.3
20260503051904 45 335 0.0 2.0 0.00 0.00 0.00 65 1013.4
20260503051400 45 335 0.0 0.0 0.00 0.00 0.00 66 1013.3
20260503050857 45 333 0.0 2.0 0.00 0.00 0.00 65 1013.3
20260503050353 45 325 0.0 2.0 0.00 0.00 0.00 66 1013.5
20260503045851 45 331 0.0 0.0 0.00 0.00 0.00 65 1013.5